Huntsville, TX

12:05 AM CDT on June 23, 2017 (GMT -0500)
Huntsville Municipal

Weather History for KUTS - September, 2013

Change the Weather History Date:

Thursday, September 19, 2013

  Actual Average (KCXO) Record (KCXO)
Temperature  
Mean Temperature 82 °F -  
Max Temperature 90 °F 86 °F 97 °F (2005)
Min Temperature 75 °F 63 °F 55 °F (1999)
Cooling Degree Days 17    
Growing Degree Days 32 (Base 50)    
Moisture  
Dew Point 73 °F    
Average Humidity 77    
Maximum Humidity 94    
Minimum Humidity 55    
Precipitation  
Precipitation 0.26 in - - ()
Sea Level Pressure  
Sea Level Pressure 29.92 in    
Wind  
Wind Speed 3 mph (ESE)    
Max Wind Speed 20 mph    
Max Gust Speed 29 mph    
Visibility 10 miles    
Events Rain , Thunderstorm    
Averages and records for this station are not official NWS values.
T = Trace of Precipitation, MM = Missing Value Source: NWS Daily Summary

Daily Weather History Graph

Daily Weather History Graph

Search for Another Location

Airport or City:

Trip Planner

Search our weather history database for the weather conditions in past years. The results will help you decide how hot, cold, wet, or windy it might be!

Date:

Astronomy

Sep. 19, 2013 Rise Set
Actual Time 7:09 AM CDT 7:22 PM CDT
Civil Twilight 6:45 AM CDT 7:46 PM CDT
Nautical Twilight 6:16 AM CDT 8:14 PM CDT
Astronomical Twilight 5:48 AM CDT 8:42 PM CDT
Moon 7:27 PM CDT (9/19) 7:15 AM CDT (9/19)
Length of Visible Light 13h 01m
Length of Day
12h 13m
Full, 100% of the Moon is Illuminated
Sep 19
Full
Sep 26
Last Quarter
Oct 4
New
Oct 11
First Quarter
Oct 18
Full

Hourly Weather History & Observations

Time (CDT) Temp. Heat Index Dew Point Humidity Pressure Visibility Wind Dir Wind Speed Gust Speed Precip Events Conditions
12:53 AM 79.0 °F - 73.0 °F 82% 29.95 in 10.0 mi Variable 4.6 mph - N/A   Clear
1:53 AM 79.0 °F - 73.0 °F 82% 29.95 in 10.0 mi SSE 3.5 mph - N/A   Clear
2:53 AM 78.1 °F - 73.0 °F 84% 29.94 in 10.0 mi Calm Calm - N/A   Clear
3:53 AM 77.0 °F - 73.0 °F 88% 29.93 in 10.0 mi Calm Calm - N/A   Partly Cloudy
4:53 AM 75.9 °F - 73.0 °F 91% 29.92 in 10.0 mi Calm Calm - N/A   Clear
5:53 AM 75.0 °F - 73.0 °F 94% 29.92 in 10.0 mi Calm Calm - N/A   Partly Cloudy
6:53 AM 75.0 °F - 73.0 °F 94% 29.94 in 10.0 mi East 3.5 mph - N/A   Partly Cloudy
7:53 AM 75.9 °F - 73.9 °F 94% 29.96 in 10.0 mi East 3.5 mph - N/A   Partly Cloudy
8:09 AM 75.2 °F - 73.4 °F 94% 29.97 in 10.0 mi East 3.5 mph - N/A   Mostly Cloudy
8:53 AM 78.1 °F - 73.9 °F 87% 29.97 in 10.0 mi Calm Calm - N/A   Overcast
9:31 AM 80.6 °F 86.2 °F 75.2 °F 84% 29.99 in 10.0 mi East 3.5 mph - N/A   Overcast
9:53 AM 82.0 °F 88.6 °F 75.0 °F 79% 29.97 in 10.0 mi East 3.5 mph - N/A   Mostly Cloudy
10:19 AM 84.2 °F 90.9 °F 73.4 °F 70% 29.99 in 10.0 mi ESE 5.8 mph - N/A   Mostly Cloudy
10:27 AM 82.4 °F 88.2 °F 73.4 °F 74% 29.99 in 10.0 mi East 3.5 mph - N/A   Scattered Clouds
10:53 AM 84.9 °F 92.1 °F 73.9 °F 69% 29.98 in 10.0 mi Variable 3.5 mph - 0.10 in   Partly Cloudy
11:53 AM 86.0 °F 93.0 °F 73.0 °F 65% 29.96 in 10.0 mi Variable 3.5 mph - N/A   Scattered Clouds
12:53 PM 84.0 °F 91.9 °F 75.0 °F 74% 29.94 in 6.0 mi East 5.8 mph - 0.00 in Rain Rain
1:53 PM 89.1 °F 97.0 °F 73.0 °F 59% 29.91 in 10.0 mi Variable 3.5 mph - 0.00 in   Scattered Clouds
2:53 PM 89.1 °F 96.0 °F 72.0 °F 57% 29.88 in 10.0 mi Calm Calm - 0.00 in   Clear
3:04 PM 89.6 °F 96.2 °F 71.6 °F 55% 29.90 in 10.0 mi South 9.2 mph - N/A Thunderstorm Mostly Cloudy
3:11 PM 84.2 °F 90.9 °F 73.4 °F 70% 29.90 in 1.2 mi South 19.6 mph 28.8 mph 0.11 in Rain , Thunderstorm Light Rain
3:28 PM 82.4 °F 89.5 °F 75.2 °F 79% 29.90 in 10.0 mi East 6.9 mph - 0.16 in Thunderstorm Thunderstorm
3:53 PM 81.0 °F 85.8 °F 73.0 °F 77% 29.88 in 10.0 mi East 4.6 mph - 0.16 in Thunderstorm Thunderstorm
4:03 PM 82.4 °F 88.2 °F 73.4 °F 74% 29.89 in 10.0 mi East 5.8 mph - N/A   Clear
4:53 PM 84.9 °F 91.4 °F 73.0 °F 67% 29.86 in 10.0 mi ENE 3.5 mph - 0.00 in Rain Light Rain
5:53 PM 84.9 °F 90.1 °F 71.1 °F 63% 29.87 in 10.0 mi Variable 5.8 mph - 0.00 in   Clear
6:53 PM 84.0 °F 89.6 °F 72.0 °F 67% 29.87 in 10.0 mi Variable 3.5 mph - N/A   Scattered Clouds
7:53 PM 82.0 °F 86.7 °F 72.0 °F 71% 29.89 in 10.0 mi SE 5.8 mph - N/A   Partly Cloudy
8:09 PM 80.6 °F 85.4 °F 73.4 °F 79% 29.90 in 10.0 mi East 3.5 mph - N/A   Mostly Cloudy
8:23 PM 80.6 °F 85.4 °F 73.4 °F 79% 29.90 in 10.0 mi Calm Calm - 0.00 in   Mostly Cloudy
8:53 PM 80.1 °F 84.5 °F 73.9 °F 81% 29.90 in 10.0 mi Calm Calm - 0.00 in   Partly Cloudy
9:53 PM 80.1 °F 84.5 °F 73.9 °F 81% 29.91 in 10.0 mi ESE 3.5 mph - N/A   Partly Cloudy
10:53 PM 79.0 °F - 73.0 °F 82% 29.90 in 10.0 mi Calm Calm - N/A   Scattered Clouds
11:53 PM 78.1 °F - 73.9 °F 87% 29.90 in 10.0 mi Variable 3.5 mph - N/A   Clear